SCP
0 0 0 0 0 0 0 0 0 0 0 0 0 0 0 0 0 0 0 0 0 1 1 1 1 1 2 2 2 1 1 1 1 1 1 1 1 1 1 1 1 1 1 1 1 1 1 1 1
0 0 0 0 0 0 0 0 0 0 0 0 0 0 0 0 0 0 0 0 1 1 1 1 1 2 2 2 2 2 1 1 1 1 1 1 1 1 1 1 1 1 1 1 1 1 1 1 1
0 0 0 0 0 0 0 0 0 0 0 0 0 1 1 0 0 0 0 1 1 1 1 1 1 2 2 2 2 2 2 2 1 1 1 1 1 1 1 1 1 1 1 1 1 1 1 1 1
0 0 0 0 0 0 0 0 1 1 1 0 1 1 1 1 1 0 0 1 1 1 1 1 1 1 2 2 3 3 2 2 2 2 1 1 1 1 1 1 1 1 1 1 1 1 1 1 1
0 0 0 0 0 0 0 0 1 1 1 1 1 1 1 1 1 0 0 1 1 1 1 1 1 1 1 2 2 3 2 2 2 2 2 1 1 1 1 1 1 1 1 1 1 1 1 1 1
0 0 0 0 0 0 0 1 1 1 1 1 1 1 1 1 1 1 1 1 1 1 1 1 1 1 1 1 2 2 2 2 2 2 2 2 1 1 1 1 1 1 1 1 1 1 1 1 1
0 0 0 0 0 0 1 1 1 1 1 1 1 1 1 1 1 1 1 1 1 1 1 1 1 1 1 1 1 1 2 2 2 2 2 2 2 2 2 2 2 2 1 1 1 1 1 1 1
0 0 0 0 0 1 1 1 1 1 1 1 1 1 1 1 0 1 1 1 1 1 1 1 2 1 1 1 1 1 1 1 1 2 2 2 2 2 2 2 2 2 2 1 1 1 1 1 1
0 0 0 0 0 1 1 1 1 1 1 1 1 1 1 0 0 1 1 1 1 1 1 2 2 2 2 2 1 1 1 1 1 1 2 2 2 2 2 2 2 2 2 1 1 1 1 1 1
0 0 0 0 0 1 1 1 1 1 1 1 1 1 0 0 0 1 1 1 1 1 2 2 2 2 2 2 2 2 1 1 1 1 1 2 2 2 1 1 2 2 1 1 1 1 1 1 1
0 0 0 0 0 0 1 1 1 1 1 1 0 0 0 0 0 1 1 1 1 1 2 2 2 2 2 2 2 2 2 1 1 1 1 1 1 1 1 1 2 2 1 1 1 1 1 1 1
0 0 0 0 0 0 0 1 0 0 0 0 0 0 0 0 1 1 1 1 1 2 2 2 2 2 2 2 2 2 2 1 1 1 1 1 1 1 1 1 2 2 2 2 2 1 1 1 1
0 0 0 0 0 0 0 0 0 0 0 0 0 0 1 1 1 1 1 1 1 2 2 3 3 3 3 2 2 2 1 1 1 1 0 0 1 1 1 1 2 2 1 2 2 2 2 1 1
0 0 0 0 0 0 0 0 0 0 0 0 0 0 1 1 1 1 1 1 1 2 2 3 3 3 3 3 3 2 2 1 1 0 0 0 0 0 0 1 1 1 1 1 2 2 2 2 1
0 0 0 0 0 0 0 0 0 0 0 0 0 0 0 1 1 1 1 1 1 1 2 3 3 3 4 4 3 3 2 1 1 0 0 0 0 0 0 0 1 1 0 0 1 1 2 2 2
0 0 0 0 0 0 0 0 0 0 0 0 0 0 0 0 1 1 1 1 1 1 2 3 4 4 4 4 4 3 3 2 1 0 0 0 0 0 0 0 0 0 0 0 1 1 2 2 2
0 0 0 0 0 0 0 0 0 0 0 0 0 0 0 0 0 1 1 1 1 1 2 2 3 4 4 4 4 4 3 2 1 1 0 0 0 0 0 0 0 0 0 0 0 1 1 2 2
0 0 0 0 0 0 0 0 0 0 0 0 0 0 0 0 0 0 1 1 1 1 1 2 3 3 4 4 4 4 3 3 2 1 0 0 0 0 0 0 0 0 0 0 0 0 1 1 1
0 0 0 0 0 0 0 0 0 0 0 0 0 0 0 0 0 0 0 0 0 0 1 1 2 3 3 4 4 4 3 3 2 1 1 0 0 0 0 0 0 0 0 0 0 0 0 0 0
0 0 0 0 0 0 0 0 0 0 0 0 0 0 0 0 0 0 0 0 0 0 1 1 2 2 3 3 4 4 3 3 2 1 1 0 0 0 0 0 0 0 0 0 0 0 0 0 0
0 0 0 0 0 0 0 0 0 0 0 0 0 0 0 0 0 0 0 0 0 0 0 1 1 2 3 3 4 4 4 3 2 1 1 0 0 0 0 0 0 0 0 0 0 0 0 0 0
0 0 0 0 0 0 0 0 0 0 0 0 0 0 0 0 0 0 0 0 0 0 1 1 1 2 3 3 4 4 4 3 2 1 1 0 0 0 0 0 0 0 0 0 0 0 0 0 0
0 0 0 0 0 0 0 0 0 0 0 0 0 0 0 0 0 0 0 0 0 0 1 1 1 2 3 3 3 3 3 3 2 1 1 0 0 0 0 0 0 0 0 0 0 0 0 0 0
0 0 0 0 0 0 0 0 0 0 0 0 0 0 0 0 0 0 0 0 0 0 1 2 2 2 3 3 3 3 3 3 2 2 1 1 0 0 0 0 0 0 0 0 0 0 0 0 0
0 0 0 0 0 0 0 0 0 0 0 0 0 0 0 0 0 0 0 0 0 0 1 2 3 3 3 3 3 3 3 3 2 2 1 1 1 0 0 0 0 0 0 0 0 0 0 0 0
0 0 0 0 0 0 0 0 0 0 0 0 0 0 0 0 0 0 0 0 0 0 1 2 3 3 3 3 3 3 3 3 2 2 2 1 1 1 0 0 0 0 0 0 0 0 0 0 0
0 0 0 0 0 0 0 0 0 0 0 0 0 0 0 0 0 0 0 0 0 0 0 1 2 3 3 3 3 3 3 3 3 2 2 2 1 1 1 0 0 0 0 0 0 0 0 0 0
0 0 0 0 0 0 0 0 0 0 0 0 0 0 0 0 0 0 0 0 0 0 0 0 1 1 2 3 3 3 3 3 3 3 2 2 1 1 1 0 0 0 0 0 0 0 0 0 0
0 0 0 0 0 0 0 0 0 0 0 0 0 0 0 0 0 0 0 0 0 0 0 0 0 0 1 2 3 3 3 3 3 3 2 2 2 1 1 1 0 0 0 0 0 0 0 0 0
0 0 0 0 0 0 0 0 0 0 0 0 0 0 0 0 0 0 0 0 0 0 0 0 0 0 0 1 2 3 3 3 3 3 2 2 2 1 1 1 1 0 0 0 0 0 0 0 0
Wind_Speed
4 3 3 3 4 3 4 3 2 3 2 3 3 1 2 3 3 4 4 4 4 2 3 4 5 6 7 8 8 8 9 9 9 9 9 9 9 9 9 10 9 10 9 8 8 8 8 7 6
3 2 3 3 5 6 4 3 4 2 3 2 2 1 2 3 4 4 3 4 3 3 3 4 6 6 7 8 8 9 9 9 9 9 9 9 9 9 9 10 9 10 9 9 9 8 8 7 6
1 2 2 3 4 5 3 4 4 4 2 1 2 2 2 4 4 3 4 2 2 3 3 5 6 7 7 8 8 8 8 8 8 8 8 9 9 9 9 9 9 9 9 9 9 8 8 8 7
2 2 2 4 5 2 1 3 4 5 3 2 1 3 4 5 4 4 3 2 3 3 3 5 6 6 7 7 8 8 8 7 7 7 8 8 8 9 9 8 9 9 9 9 9 8 8 8 7
2 3 4 4 4 2 1 2 4 3 3 2 1 2 4 4 5 4 3 3 3 4 3 4 6 6 6 7 7 7 7 7 7 7 7 8 8 8 8 8 8 8 8 8 8 8 8 8 7
2 3 6 7 6 4 3 2 3 2 2 2 1 2 4 5 5 4 4 4 4 4 3 4 6 7 7 6 6 7 7 7 7 7 7 7 7 8 8 8 8 8 7 8 8 7 7 7 7
3 3 5 6 6 5 3 2 3 3 2 1 1 1 4 4 4 3 4 4 5 4 3 3 3 4 6 7 7 7 7 7 7 7 7 7 7 7 8 8 8 7 7 7 7 7 7 6 6
1 2 4 6 6 5 4 2 0 2 1 3 1 0 2 3 3 2 3 4 4 4 4 4 3 3 3 3 6 7 7 7 7 7 7 6 6 6 7 7 7 7 7 7 7 7 7 6 5
3 4 6 6 5 4 5 3 2 1 3 2 2 3 4 3 3 3 3 3 4 4 4 4 4 4 3 3 4 5 6 6 5 5 6 4 3 3 4 6 7 7 7 7 7 7 6 5 4
3 5 4 1 1 3 5 3 3 4 3 2 1 2 3 3 3 2 2 2 3 4 4 4 4 4 3 2 2 2 3 3 4 3 4 3 3 3 3 5 7 7 7 6 7 6 4 3 2
1 2 2 1 1 3 4 3 2 4 3 2 1 2 2 2 2 1 1 2 2 2 4 4 4 4 3 2 2 2 2 2 3 4 4 3 2 2 2 2 2 3 3 3 3 3 3 3 3
2 2 1 2 2 2 2 3 2 2 1 2 0 2 3 2 1 1 1 1 2 2 3 4 4 3 3 2 2 2 2 2 2 3 4 3 2 2 2 2 2 2 2 2 2 2 3 3 3
2 2 2 3 3 3 2 2 2 2 1 0 2 3 3 2 1 1 2 2 2 2 3 3 3 3 3 2 2 2 2 2 2 3 3 4 3 2 2 2 2 2 2 2 2 2 2 2 3
4 4 3 1 1 1 1 2 3 2 1 2 3 3 2 2 2 2 1 2 2 2 2 3 3 3 3 2 2 2 2 2 2 2 3 4 3 3 2 2 2 2 2 2 2 2 2 2 2
4 3 1 0 1 1 2 3 4 3 3 3 3 3 2 1 1 1 1 1 1 2 2 2 2 3 3 2 2 2 2 2 2 2 3 3 3 3 3 2 2 2 2 2 2 2 2 2 2
3 3 3 1 1 2 5 7 3 3 4 4 3 2 2 1 0 1 1 1 2 2 2 2 2 3 3 2 2 2 2 2 2 2 2 3 3 3 2 2 3 3 2 2 1 2 2 2 2
3 4 4 2 1 2 6 6 2 3 5 5 4 3 3 2 0 0 1 1 1 2 2 2 2 2 2 2 1 2 2 2 2 2 2 3 4 4 3 2 3 3 2 2 1 1 2 2 2
4 4 4 4 1 3 7 7 4 4 6 6 5 4 4 4 2 0 1 1 1 2 2 2 2 2 2 1 1 1 2 2 2 2 3 3 3 4 3 2 3 3 2 2 2 2 2 1 2
2 4 5 4 3 5 8 9 6 5 7 7 6 5 5 4 2 1 0 1 1 1 2 2 2 2 2 1 1 1 2 2 2 2 3 3 3 3 3 2 3 2 2 2 2 2 2 1 2
3 4 4 3 3 5 7 10 7 7 8 7 7 6 5 4 3 2 1 0 1 1 1 1 1 2 2 1 1 2 2 1 2 2 2 3 3 3 3 3 2 2 2 2 2 2 2 2 2
3 4 5 4 4 3 6 8 7 5 6 5 6 6 5 5 4 3 1 1 1 1 2 2 2 2 2 1 1 1 1 1 1 2 2 3 3 3 3 3 3 2 2 2 2 3 3 2 2
4 3 4 4 4 3 3 7 5 5 5 5 6 5 5 4 4 3 2 2 2 1 2 2 2 2 2 1 1 1 1 2 2 2 2 3 3 3 3 3 3 2 2 2 2 2 2 3 2
1 1 2 3 4 5 4 7 5 3 6 6 5 5 5 4 4 4 2 2 2 1 1 2 2 2 2 1 2 2 2 2 2 2 2 3 2 3 3 3 3 3 2 2 2 2 2 2 2
2 1 1 2 3 6 5 7 6 3 5 4 4 4 5 4 4 3 2 1 1 1 1 1 2 1 2 2 2 2 2 2 3 2 2 2 2 2 3 3 3 3 3 3 2 2 3 2 2
2 2 1 2 3 5 2 7 7 2 3 4 4 4 4 4 4 3 2 2 1 1 1 1 2 2 2 2 2 2 2 3 3 3 3 3 2 2 3 3 3 3 3 3 3 2 3 3 3
4 3 3 4 4 3 4 8 4 1 2 3 4 4 4 4 3 3 3 2 2 2 2 2 2 2 2 2 2 3 3 2 2 3 3 3 3 3 4 4 4 4 3 3 3 2 3 3 3
3 3 2 1 2 6 6 6 6 3 4 4 4 4 4 3 3 3 3 3 2 2 2 2 2 2 3 2 3 3 2 3 3 3 3 3 3 3 4 4 4 4 4 3 3 3 3 3 3
1 3 3 3 4 6 6 7 4 3 4 4 4 4 3 3 3 3 3 3 2 2 2 2 2 2 2 2 2 2 3 3 3 3 3 4 3 3 4 3 4 4 4 4 3 3 3 3 4
4 3 3 2 3 5 6 4 1 3 3 4 4 4 4 3 3 3 3 2 2 2 2 2 2 2 2 2 2 2 3 3 3 3 3 4 3 3 4 4 4 4 4 4 4 4 4 4 4
4 5 5 4 5 5 6 5 1 2 3 3 4 4 3 3 3 3 3 2 2 2 2 2 2 2 2 2 3 3 3 3 3 3 4 4 3 3 3 3 4 4 4 4 4 5 4 4 5
Wind_Direction
324 300 256 234 214 209 212 164 150 137 123 55 44 28 46 26 350 42 47 27 23 43 59 66 37 48 51 53 57 58 57 58 59 60 58 58 59 59 58 57 57 57 59 65 71 70 68 72 79
320 278 233 231 232 213 190 171 168 116 80 93 79 81 101 75 40 50 44 20 27 53 62 62 43 50 55 56 58 58 56 55 56 59 58 58 59 58 58 57 57 57 57 58 64 68 65 67 68
271 285 239 210 227 233 168 150 139 103 95 131 94 51 37 60 52 40 29 16 50 66 61 56 42 49 55 59 59 59 56 54 54 58 56 56 57 57 56 56 58 57 56 56 56 60 62 59 60
237 195 206 222 206 222 196 132 133 138 124 82 128 112 90 49 25 30 38 51 72 71 62 61 42 47 52 56 58 57 58 59 59 59 56 55 56 56 55 54 54 55 55 55 53 54 58 55 52
239 217 198 204 210 182 150 139 157 165 135 119 174 113 102 72 50 59 60 61 67 65 59 63 43 43 47 52 54 52 55 57 61 61 59 54 53 53 52 52 54 52 53 55 54 53 56 53 50
195 217 216 210 198 179 166 182 197 195 142 118 141 120 98 80 54 59 65 61 61 61 55 63 49 43 41 44 47 48 49 51 55 58 59 56 52 52 52 51 52 49 50 51 51 50 54 53 49
223 213 225 212 198 194 172 175 205 196 180 108 10 132 117 83 50 61 74 69 65 61 54 52 56 55 45 42 41 44 43 46 49 51 53 52 50 49 50 47 47 46 48 48 47 46 47 47 43
262 199 200 205 205 198 156 154 73 253 125 68 345 195 117 57 60 83 85 74 64 55 47 40 43 44 47 53 43 38 38 41 43 44 40 42 47 47 44 43 41 42 44 46 45 42 40 40 39
237 219 214 208 204 177 157 162 114 74 120 96 40 18 46 86 108 112 93 72 55 46 38 30 31 34 32 38 45 41 35 34 38 43 37 36 47 52 50 44 38 40 40 42 42 39 34 32 43
222 222 220 203 205 161 158 166 154 170 164 173 131 78 89 106 126 130 103 65 46 34 28 25 22 19 24 28 37 39 32 27 26 27 28 28 32 34 38 47 36 35 35 38 36 28 22 4 28
168 213 153 125 106 145 159 157 177 197 204 230 225 164 132 124 118 122 98 69 49 34 25 18 15 10 11 13 13 25 28 21 21 22 13 15 30 33 31 33 38 36 26 32 27 18 17 12 4
134 89 104 107 93 149 168 167 177 224 297 342 280 159 153 151 132 115 84 58 48 36 21 13 10 4 1 2 9 16 26 22 21 17 8 4 16 18 17 9 7 8 9 6 2 3 16 8 3
154 128 85 86 104 106 131 180 200 232 292 264 134 144 151 151 123 91 76 64 48 32 21 13 7 3 0 1 10 21 25 27 30 22 12 6 8 4 4 4 360 0 358 353 350 352 7 1 360
115 121 118 93 134 172 171 226 213 225 216 169 159 159 147 131 110 95 74 55 40 22 15 13 11 3 1 3 6 18 25 21 26 26 16 14 9 360 353 357 355 354 348 345 339 344 352 352 349
127 128 138 189 226 173 210 226 228 210 196 183 180 174 163 131 108 91 58 43 19 15 11 17 14 8 6 9 10 19 27 21 23 20 13 15 8 355 352 344 345 350 342 338 339 346 348 347 346
164 194 211 156 196 199 237 245 212 185 202 206 205 200 194 166 115 63 38 33 17 9 9 18 19 16 17 18 18 22 25 32 28 20 12 13 4 353 348 346 344 339 333 331 336 329 333 336 336
195 228 238 221 194 223 236 252 219 203 217 223 224 220 211 199 195 49 36 32 16 10 5 16 19 18 21 18 23 35 31 31 27 24 20 8 2 353 350 346 343 330 324 328 330 325 323 325 330
217 235 243 243 227 248 244 248 237 214 225 233 235 232 225 221 225 208 42 29 29 19 8 9 18 16 14 14 19 26 32 24 22 21 17 7 358 354 351 347 339 331 327 333 328 327 328 320 325
232 241 257 281 295 267 254 257 253 229 234 235 234 234 231 231 230 237 63 36 26 17 2 0 5 9 8 355 336 340 357 0 7 14 8 1 357 350 351 347 336 331 326 327 326 321 311 323 313
219 241 269 283 302 277 271 267 257 234 237 245 243 237 235 231 225 226 230 341 333 343 331 334 348 352 354 344 324 323 327 328 343 354 359 356 353 351 346 347 334 330 328 333 332 323 298 302 305
238 250 265 278 295 252 283 262 235 223 236 244 245 241 234 231 229 221 220 257 293 314 316 317 328 328 332 331 321 325 314 308 325 346 347 350 346 348 344 340 337 332 331 325 325 312 298 282 296
244 268 261 260 260 259 274 278 232 218 234 233 235 232 232 226 226 230 234 256 276 299 315 312 311 318 323 309 288 296 302 310 323 319 318 328 341 347 345 334 332 324 321 316 309 306 297 280 278
239 302 253 251 254 261 237 263 257 204 239 235 233 233 231 225 227 230 234 255 279 304 318 313 303 312 315 303 286 276 286 302 306 303 307 322 333 341 342 333 330 318 311 309 306 305 294 280 277
147 151 145 213 236 253 239 248 264 223 236 235 236 239 230 223 223 229 234 258 277 318 326 311 300 301 299 291 283 277 284 292 295 302 308 312 316 323 330 327 322 313 311 304 296 292 286 280 274
209 213 236 229 230 248 210 245 259 265 242 241 255 254 229 217 217 219 222 237 266 279 287 295 302 301 292 279 278 278 276 279 283 292 292 299 304 313 317 317 311 306 302 299 293 284 276 274 270
206 237 243 260 264 274 219 245 260 256 250 252 253 253 225 218 218 223 225 231 244 258 269 274 291 297 296 288 286 277 275 278 282 286 289 286 291 297 303 301 300 298 295 291 284 280 274 268 265
182 209 306 273 288 271 252 261 264 227 247 244 244 239 232 232 231 235 234 237 240 249 265 267 277 291 299 299 293 284 284 284 284 289 289 286 290 292 292 292 293 292 288 283 278 270 269 269 266
299 151 177 212 247 261 264 259 263 243 256 246 242 243 245 238 240 246 243 249 244 241 259 264 271 280 292 295 297 298 292 290 289 289 288 289 293 292 291 291 288 289 286 276 269 269 268 268 268
174 180 207 220 265 267 275 267 336 261 261 260 261 259 254 240 237 240 241 245 245 244 246 257 266 274 282 292 295 293 297 297 294 293 295 298 294 291 290 290 289 288 286 280 270 268 265 262 267
242 223 204 228 235 245 270 275 92 285 299 289 283 277 261 246 238 242 243 235 233 236 246 258 274 276 283 287 289 293 300 297 298 302 304 305 300 294 294 288 286 282 280 278 269 264 264 258 258